Theta_e
347 351 348 348 353 352 352 351 352 350 352 351 350 350 352 347 352 353 353 353 354 354 352 353 353 352 350 350 350 351 350 351 348 350 349 346 346 347 347 344 346 346 350
347 351 347 349 351 350 352 351 350 351 352 351 353 353 352 354 353 352 349 353 354 352 353 352 351 352 351 350 351 351 351 351 350 346 345 341 350 349 346 347 347 348 350
349 351 351 348 348 351 349 351 349 352 353 352 353 351 348 354 353 353 353 354 353 353 353 351 351 351 352 351 351 351 350 350 346 344 347 344 344 350 349 344 344 347 349
350 350 350 349 350 351 352 351 351 352 353 353 348 351 353 352 353 353 353 353 353 353 352 352 351 352 348 346 347 351 351 348 346 344 344 343 343 348 348 349 345 347 347
350 350 351 350 351 352 350 350 351 351 351 351 351 352 352 353 353 353 353 351 352 352 352 351 351 348 346 345 346 346 347 347 348 347 345 345 343 345 346 346 344 341 346
349 352 349 351 352 351 349 350 349 351 350 350 352 352 349 353 351 350 348 348 349 349 351 351 348 344 344 345 346 348 348 346 352 346 344 344 345 343 342 339 340 342 342
349 351 352 350 349 347 344 343 349 351 348 349 351 353 353 351 349 348 346 342 342 343 343 344 343 344 345 344 344 342 344 344 345 347 347 345 346 343 349 346 341 340 342
349 349 352 346 338 349 351 339 347 347 347 352 352 352 348 345 343 341 337 336 335 338 341 341 341 344 343 343 342 340 341 346 344 346 346 343 343 348 349 347 341 337 343
348 349 350 340 346 349 351 346 341 343 344 346 345 342 338 334 335 335 334 332 333 335 338 339 342 343 341 341 339 339 341 344 347 343 341 342 330 338 346 346 345 344 344
346 344 342 345 352 351 350 348 349 342 340 337 337 336 335 336 336 335 333 332 332 333 336 340 340 340 339 340 339 339 341 350 347 346 343 340 330 330 338 343 340 339 341
344 343 342 348 350 348 345 344 339 338 336 336 337 337 346 347 349 349 344 335 335 336 337 338 338 339 343 348 345 342 348 349 349 347 345 333 335 332 333 335 334 336 337
342 342 344 342 341 342 341 345 344 343 343 346 350 353 353 353 353 351 348 340 339 338 338 338 339 346 349 348 349 348 348 348 348 347 346 333 336 335 340 336 335 335 336
341 340 340 340 342 342 343 346 346 348 349 353 358 359 358 357 357 355 356 355 357 355 355 354 354 354 351 349 345 346 349 348 346 345 345 338 335 334 337 339 339 341 342
340 339 340 342 347 347 348 348 348 349 353 353 356 358 357 356 357 356 353 355 357 355 357 354 353 356 353 348 346 347 346 344 345 347 343 338 337 338 335 334 337 339 338
339 339 341 346 350 351 353 351 352 352 353 352 353 354 354 355 356 354 353 353 354 352 352 353 354 351 348 346 346 347 346 346 348 350 350 348 341 339 340 340 339 339 340
339 340 344 347 352 352 352 353 352 353 354 352 350 350 351 353 357 355 355 354 353 354 354 353 352 349 349 350 349 349 350 350 351 351 352 352 347 344 342 343 343 344 345
338 341 346 348 348 351 353 353 351 351 350 351 349 351 348 353 357 359 353 352 351 354 356 354 353 352 350 350 351 349 350 348 349 351 353 352 351 348 344 344 344 344 345
340 341 345 343 345 348 350 351 350 350 350 349 347 348 353 352 353 355 352 351 353 351 351 350 349 346 346 343 345 346 348 347 346 347 349 350 352 351 351 346 345 344 344
342 343 346 346 346 347 350 352 352 350 351 348 349 348 352 350 350 354 350 350 355 351 351 350 348 351 346 343 342 340 343 344 344 345 346 347 351 349 350 351 350 350 348
345 344 345 348 349 349 351 354 351 348 347 347 349 349 351 351 353 355 349 352 353 349 350 352 355 350 350 348 349 346 345 344 343 345 345 343 344 347 346 350 351 352 350
349 348 345 347 348 349 352 351 349 347 345 346 350 354 354 355 355 355 351 351 355 353 353 356 354 352 350 350 350 349 348 345 344 344 345 344 343 344 346 347 348 346 348
350 351 351 349 348 351 351 352 350 349 348 348 352 356 356 356 357 356 357 353 355 352 352 353 352 351 349 351 352 350 350 347 348 346 348 347 349 349 348 349 350 352 349
351 351 352 353 352 353 352 353 354 354 354 352 353 354 356 356 355 355 354 351 354 353 352 350 351 351 349 349 353 353 353 353 348 349 351 351 353 346 344 342 350 351 354
350 351 352 354 354 351 352 352 352 351 350 347 350 349 355 355 353 352 352 353 354 352 353 352 352 351 350 351 350 351 352 350 349 348 345 340 336 333 336 339 332 345 353
348 349 351 353 355 354 351 352 353 355 351 350 351 353 354 351 349 346 347 347 348 347 348 348 347 348 347 347 345 342 341 339 343 337 336 332 329 331 333 328 337 331 344
349 349 350 353 356 356 355 354 354 353 352 351 352 353 350 344 340 340 339 339 340 339 340 339 338 338 337 336 333 331 331 332 332 330 330 329 327 326 325 338 330 341 334
Wind_Speed
6 6 7 7 7 9 10 10 11 12 12 12 13 13 12 13 13 13 13 15 15 15 15 15 16 16 16 16 15 14 13 13 14 14 13 13 12 11 11 12 14 12 14
11 8 8 8 9 10 10 10 12 12 12 12 13 13 13 13 13 13 14 14 15 14 14 16 16 15 15 15 14 14 14 13 12 13 13 13 12 11 10 10 11 12 12
11 10 9 10 10 11 11 12 11 11 11 12 12 12 13 13 13 14 14 14 14 13 14 14 15 15 16 15 14 13 13 13 12 13 7 11 10 10 9 8 10 11 11
11 11 10 10 10 10 10 10 11 12 11 12 12 12 12 13 13 13 13 12 13 12 13 15 14 14 14 13 11 11 10 10 12 10 8 10 10 10 10 9 9 8 8
12 11 9 9 9 10 10 10 10 10 10 11 11 12 12 11 12 12 12 10 10 10 11 12 12 11 10 9 8 8 6 6 7 7 9 9 10 8 9 11 9 8 6
12 10 8 8 8 9 9 10 10 9 10 11 11 11 11 11 10 11 10 9 8 9 9 9 9 9 8 9 8 9 8 8 6 8 9 10 9 8 8 9 7 6 5
11 10 7 8 7 7 8 8 10 11 10 11 11 10 10 10 9 9 9 8 8 8 8 8 7 7 8 8 9 11 11 11 8 8 8 8 8 10 7 6 7 6 5
11 9 8 6 8 7 7 7 9 9 9 9 10 9 9 9 9 8 8 8 9 8 8 7 6 5 6 6 7 9 9 7 8 8 7 7 9 9 8 6 5 5 4
10 9 8 8 8 7 8 7 10 9 9 9 9 9 9 10 9 9 9 9 8 8 7 5 4 4 4 5 6 7 7 7 5 6 6 6 7 8 8 7 5 5 4
8 8 8 9 8 7 8 8 8 9 10 10 9 9 9 9 9 8 10 8 8 7 6 4 2 2 4 7 6 4 5 6 3 4 4 5 7 8 7 6 5 3 4
8 8 8 8 7 8 9 7 8 9 9 9 8 8 7 7 6 5 6 7 6 4 3 2 0 2 5 7 7 5 4 3 2 3 4 5 8 8 7 6 3 6 5
11 10 9 9 10 11 11 10 9 8 8 7 5 4 5 5 4 5 4 4 4 3 1 2 3 5 6 4 5 6 3 4 2 2 3 7 9 9 6 7 7 3 2
11 11 11 12 12 12 12 11 10 8 7 4 2 1 1 1 2 2 2 1 1 3 2 3 4 2 3 5 7 6 4 3 3 1 3 6 7 9 8 8 5 2 5
13 13 14 14 13 12 11 9 9 8 6 4 2 2 2 1 1 1 2 1 0 1 2 3 2 3 5 7 5 6 3 3 4 2 1 2 6 9 10 12 14 8 9
13 15 15 14 12 11 10 7 6 7 5 5 4 1 3 3 3 2 2 1 2 3 2 2 2 3 3 3 4 5 5 3 3 4 4 8 6 10 10 12 14 15 14
15 16 15 14 12 9 7 5 5 5 4 2 2 1 3 3 2 1 0 0 2 3 3 2 2 2 1 3 5 4 4 5 5 5 5 5 6 9 11 13 13 15 13
14 17 16 14 12 9 7 6 6 6 5 3 2 1 1 2 3 1 1 2 3 3 2 4 4 4 5 5 5 5 5 6 6 5 2 2 1 2 1 5 8 13 12
15 16 16 14 12 10 9 7 7 7 6 5 3 4 4 4 2 2 4 5 4 5 5 5 6 8 7 9 8 8 8 8 5 6 5 3 2 0 3 4 0 4 9
16 16 16 14 12 11 8 7 8 9 9 8 6 5 4 5 5 6 7 6 5 7 7 8 8 8 12 13 13 11 9 9 8 7 7 6 4 3 2 4 5 2 5
15 16 16 15 13 10 8 7 7 10 13 11 10 8 6 6 6 7 8 6 7 9 10 9 8 11 11 11 14 14 11 10 8 6 6 7 6 7 7 5 7 7 7
17 17 18 17 15 12 11 10 9 11 14 12 10 8 8 8 8 9 10 9 8 9 9 8 10 11 12 11 14 12 12 10 6 3 5 6 6 8 8 9 9 9 9
19 19 19 20 19 17 14 12 10 8 10 11 9 7 6 7 7 8 9 10 9 10 11 11 11 11 12 8 12 14 6 9 3 11 4 6 5 8 9 9 9 9 10
22 23 24 24 23 21 18 15 13 11 10 12 11 8 5 4 4 4 5 7 7 8 9 12 11 10 10 9 6 5 5 5 15 2 7 6 6 9 8 9 7 9 10
26 24 24 24 27 28 21 19 19 19 18 17 14 13 6 2 2 1 3 4 6 7 7 7 6 8 7 6 6 4 3 4 4 6 10 7 10 12 9 6 11 8 7
23 23 24 24 24 25 25 24 22 21 20 17 14 11 6 5 4 4 5 6 6 5 5 4 3 4 3 3 4 5 4 5 4 8 7 13 15 11 9 15 7 10 6
20 21 21 21 23 22 22 23 23 18 16 15 14 12 8 7 6 7 4 4 5 4 3 4 4 5 5 5 3 3 4 6 8 7 8 12 15 11 16 6 12 3 8
Wind_Direction
152 135 122 121 118 112 112 112 109 109 111 107 109 112 109 105 103 102 100 98 101 101 100 97 99 98 95 95 96 100 103 101 102 98 98 101 98 101 105 109 120 112 118
135 130 131 126 123 120 117 110 107 109 108 110 109 113 110 107 103 101 99 100 99 98 98 100 98 98 98 96 94 91 89 93 104 103 106 98 90 90 94 96 99 124 120
129 131 126 126 126 122 115 116 113 112 110 110 114 110 106 104 103 101 102 102 98 98 99 102 105 104 102 98 93 91 88 90 93 91 102 108 87 89 87 90 101 108 115
132 131 126 128 123 119 116 116 112 107 111 113 113 109 107 103 100 101 100 94 100 102 103 105 108 109 103 96 96 96 92 82 79 81 85 89 92 97 99 88 84 95 104
132 127 128 121 120 122 123 118 110 107 110 109 109 110 107 102 103 98 94 107 105 108 107 107 107 102 97 90 80 78 81 73 91 87 88 88 91 100 102 88 80 84 82
130 125 126 121 122 117 115 111 113 109 105 105 109 111 110 102 98 100 107 110 115 119 115 113 111 104 90 74 65 63 67 90 89 95 99 92 93 114 96 99 101 98 101
136 122 124 126 122 118 109 122 112 112 116 113 114 108 108 106 105 109 113 119 122 123 124 119 114 99 86 75 65 59 69 76 96 109 103 102 114 107 113 105 92 109 107
132 136 130 117 124 111 115 112 137 128 128 122 120 118 115 111 111 112 118 122 128 132 131 123 106 81 62 49 40 37 51 91 81 106 114 116 127 127 125 118 101 118 126
141 140 137 132 127 106 133 123 142 136 134 136 128 123 121 117 119 121 121 123 129 136 130 123 104 64 31 20 15 14 20 70 75 93 100 114 123 130 140 140 131 126 118
145 144 139 138 129 130 119 129 135 135 136 133 127 125 120 113 111 110 104 123 132 140 142 131 90 19 354 344 338 350 13 58 55 96 98 109 120 126 141 137 112 135 146
151 150 149 146 136 137 134 137 120 130 134 122 112 122 99 124 112 108 164 142 134 146 152 160 216 329 358 10 6 1 50 51 63 115 117 132 117 144 156 139 138 115 124
157 157 154 146 139 137 131 125 129 133 134 130 129 128 120 122 127 134 148 140 142 168 206 267 296 332 8 14 12 16 32 38 66 131 148 165 145 148 141 143 88 92 195
157 155 154 144 141 139 133 135 136 136 135 137 145 151 279 203 179 191 180 197 224 285 254 321 316 316 350 2 6 19 22 28 33 48 193 183 195 192 190 179 189 331 34
160 157 152 147 146 139 141 144 142 147 139 130 125 76 29 40 188 197 135 128 175 18 337 337 319 311 330 334 355 7 358 21 31 12 274 287 222 226 223 219 236 247 242
164 159 154 154 152 148 148 150 147 147 137 122 120 74 46 43 40 106 124 104 359 12 11 32 5 325 323 7 356 0 11 359 353 334 300 289 264 234 235 243 246 256 251
170 166 162 164 162 159 156 159 162 163 161 137 147 155 27 42 6 64 86 164 328 7 18 21 25 58 15 350 3 356 336 332 321 339 333 290 320 250 239 248 250 252 255
178 173 171 174 173 176 174 178 188 194 189 192 176 229 243 30 357 303 276 318 330 333 337 334 340 327 320 321 324 321 309 314 316 319 313 5 226 6 172 241 241 249 263
186 185 182 185 186 189 187 190 206 219 226 219 247 240 244 259 230 247 273 288 308 309 300 301 312 313 308 314 309 300 305 302 308 287 279 264 282 177 262 2 18 232 249
189 193 198 196 197 197 212 228 231 225 228 234 248 239 253 268 256 265 266 273 296 290 285 292 300 306 311 312 305 299 298 293 291 303 288 276 266 295 295 302 352 351 357
194 197 204 207 207 212 224 243 242 228 224 233 238 242 241 240 254 266 270 284 285 276 279 286 297 302 304 309 314 310 293 289 291 268 270 278 277 291 279 282 283 253 310
204 204 205 210 217 218 223 227 224 228 216 227 240 250 244 243 249 253 262 269 277 279 293 300 293 294 303 319 313 314 308 279 278 244 275 300 294 293 297 292 289 288 271
208 211 212 214 214 219 225 229 234 238 234 241 234 245 244 239 242 248 258 265 268 277 281 279 276 285 291 306 314 313 308 304 158 328 327 307 358 319 310 297 295 290 280
211 210 212 213 211 216 219 219 221 228 232 238 237 243 253 252 253 263 291 289 286 288 271 269 273 263 280 306 307 317 323 341 340 58 320 340 343 332 325 320 317 300 293
216 216 217 216 210 211 211 222 226 236 238 235 237 245 222 233 261 358 354 329 312 307 315 295 292 291 287 265 278 294 321 324 333 319 334 339 336 325 336 319 326 324 308
221 217 218 219 218 216 214 221 225 229 246 245 239 222 196 149 111 80 58 42 17 2 355 5 355 9 354 332 346 339 332 289 251 311 308 327 327 331 326 321 309 321 325
220 221 218 214 218 217 216 222 226 239 240 243 225 214 165 150 121 105 111 72 23 8 4 356 21 45 45 43 32 24 359 342 337 323 316 316 326 317 323 329 318 318 312